SWA152 KBWI-KMCO

Flight info

Callsign SWA152
Flight time 1h 53m
Altitude 36000
Route TERPZ8 RRSIN GSO Q83 ROYCO Q85 LPERD SNFLD3
Aircraft B38M/M-SDE1FGHILORVWXY/HB1

Departure

Time 2026-04-22 00:55
Airport Baltimore/Washington International Thurgood Marshall Airport (KBWI)

Arrival

Time 2026-04-22 02:48
Airport Orlando International Airport (KMCO)
Time Latitude Longitude Altitude Speed Heading
2026-04-22 00:33 39.18035 -76.67353 157 ft 0 kts 54°
2026-04-22 00:47 39.18031 -76.67359 157 ft 4 kts 53°
2026-04-22 00:47 39.18014 -76.67384 158 ft 4 kts 39°
2026-04-22 00:47 39.17991 -76.67400 158 ft 4 kts
2026-04-22 00:48 39.17974 -76.67396 158 ft 0 kts 324°
2026-04-22 00:51 39.17976 -76.67398 158 ft 1 kts 324°
2026-04-22 00:51 39.17994 -76.67414 158 ft 5 kts 324°
2026-04-22 00:51 39.18045 -76.67461 159 ft 14 kts 324°
2026-04-22 00:51 39.18144 -76.67553 161 ft 19 kts 323°
2026-04-22 00:52 39.18195 -76.67655 164 ft 12 kts 248°
2026-04-22 00:52 39.18228 -76.67738 165 ft 12 kts 324°
2026-04-22 00:52 39.18316 -76.67818 164 ft 20 kts 324°
2026-04-22 00:52 39.18456 -76.67948 164 ft 28 kts 324°
2026-04-22 00:53 39.18562 -76.68050 161 ft 8 kts 311°
2026-04-22 00:53 39.18572 -76.68076 162 ft 0 kts 288°
2026-04-22 00:53 39.18573 -76.68102 162 ft 8 kts 262°
2026-04-22 00:54 39.18522 -76.68184 162 ft 11 kts 189°
2026-04-22 00:54 39.18452 -76.68121 162 ft 17 kts 146°
2026-04-22 00:54 39.18218 -76.67903 166 ft 74 kts 144°
2026-04-22 00:54 39.17638 -76.67365 163 ft 129 kts 144°
2026-04-22 00:55 39.16806 -76.66593 340 ft 156 kts 143°
2026-04-22 00:55 39.15904 -76.65768 900 ft 163 kts 145°
2026-04-22 00:55 39.13683 -76.65298 2055 ft 178 kts 207°
2026-04-22 00:56 39.12829 -76.66585 2401 ft 212 kts 249°
2026-04-22 00:56 39.12921 -76.68559 3057 ft 233 kts 292°
2026-04-22 00:56 39.14017 -76.70118 4091 ft 242 kts 316°
2026-04-22 00:56 39.15283 -76.71503 5109 ft 236 kts 313°
2026-04-22 00:57 39.16471 -76.72909 6193 ft 228 kts 313°
2026-04-22 00:57 39.17596 -76.74270 7193 ft 223 kts 314°
2026-04-22 00:57 39.18666 -76.75779 7915 ft 232 kts 300°
2026-04-22 00:57 39.19173 -76.77832 8392 ft 250 kts 283°
2026-04-22 00:58 39.19490 -76.80045 8846 ft 252 kts 284°
2026-04-22 00:58 39.19835 -76.82276 9359 ft 254 kts 285°
2026-04-22 00:58 39.20176 -76.84500 10292 ft 255 kts 286°
2026-04-22 00:58 39.20524 -76.86819 10694 ft 273 kts 285°
2026-04-22 00:59 39.20889 -76.89314 11023 ft 291 kts 285°
2026-04-22 00:59 39.21268 -76.91938 11552 ft 302 kts 285°
2026-04-22 00:59 39.21651 -76.94609 12362 ft 304 kts 285°
2026-04-22 00:59 39.21995 -76.97326 13104 ft 312 kts 278°
2026-04-22 01:00 39.22019 -77.00148 13927 ft 316 kts 276°
2026-04-22 01:00 39.22060 -77.03010 14631 ft 321 kts 276°
2026-04-22 01:00 39.22114 -77.05905 15370 ft 325 kts 276°
2026-04-22 01:00 39.22176 -77.08831 16104 ft 329 kts 276°
2026-04-22 01:01 39.21881 -77.11793 16837 ft 342 kts 257°
2026-04-22 01:01 39.20752 -77.14555 17573 ft 358 kts 238°
2026-04-22 01:01 39.18873 -77.16756 18295 ft 374 kts 219°
2026-04-22 01:01 39.16655 -77.18547 18923 ft 378 kts 218°
2026-04-22 01:02 39.14430 -77.20390 19523 ft 381 kts 218°
2026-04-22 01:02 39.12192 -77.22246 20155 ft 384 kts 219°
2026-04-22 01:02 39.09937 -77.24114 20732 ft 387 kts 218°
2026-04-22 01:02 39.07575 -77.25821 21361 ft 391 kts 213°
2026-04-22 01:03 39.05168 -77.27484 21941 ft 394 kts 214°
2026-04-22 01:03 39.02752 -77.29171 22521 ft 397 kts 214°
2026-04-22 01:03 39.00320 -77.30877 23102 ft 399 kts 214°
2026-04-22 01:03 38.97875 -77.32594 23679 ft 402 kts 214°
2026-04-22 01:04 38.95411 -77.34325 24152 ft 405 kts 214°
2026-04-22 01:04 38.92933 -77.36064 24618 ft 407 kts 214°
2026-04-22 01:04 38.90439 -77.37814 25067 ft 410 kts 214°
2026-04-22 01:04 38.87964 -77.39549 25501 ft 412 kts 214°
2026-04-22 01:05 38.85439 -77.41317 25960 ft 415 kts 215°
2026-04-22 01:05 38.82898 -77.43095 26395 ft 417 kts 215°
2026-04-22 01:05 38.80342 -77.44882 26825 ft 420 kts 215°
2026-04-22 01:05 38.77771 -77.46678 27242 ft 422 kts 215°
2026-04-22 01:06 38.75181 -77.48486 27670 ft 425 kts 215°
2026-04-22 01:06 38.72496 -77.50131 28061 ft 436 kts 204°
2026-04-22 01:06 38.69548 -77.51147 28543 ft 439 kts 201°
2026-04-22 01:06 38.66596 -77.52204 28853 ft 443 kts 202°
2026-04-22 01:07 38.63615 -77.53259 29247 ft 445 kts 202°
2026-04-22 01:07 38.60619 -77.54312 29610 ft 448 kts 202°
2026-04-22 01:07 38.57600 -77.55369 29980 ft 451 kts 202°
2026-04-22 01:07 38.54564 -77.56431 30332 ft 454 kts 202°
2026-04-22 01:08 38.51514 -77.57497 30633 ft 456 kts 202°
2026-04-22 01:08 38.48442 -77.58569 30948 ft 458 kts 202°
2026-04-22 01:08 38.45363 -77.59643 31235 ft 460 kts 201°
2026-04-22 01:08 38.42276 -77.60719 31594 ft 460 kts 201°
2026-04-22 01:09 38.39178 -77.61798 31890 ft 463 kts 201°
2026-04-22 01:09 38.36065 -77.62881 32187 ft 465 kts 202°
2026-04-22 01:09 38.32939 -77.63971 32493 ft 466 kts 203°
2026-04-22 01:09 38.29991 -77.65538 32741 ft 454 kts 219°
2026-04-22 01:10 38.27490 -77.67905 33059 ft 447 kts 226°
2026-04-22 01:10 38.25069 -77.70384 33418 ft 447 kts 226°
2026-04-22 01:10 38.22670 -77.72889 33823 ft 445 kts 227°
2026-04-22 01:10 38.20293 -77.75403 34216 ft 444 kts 228°
2026-04-22 01:11 38.17929 -77.77923 34577 ft 443 kts 228°
2026-04-22 01:11 38.15575 -77.80437 34910 ft 442 kts 228°
2026-04-22 01:11 38.13223 -77.82949 35218 ft 442 kts 228°
2026-04-22 01:11 38.10870 -77.85461 35524 ft 442 kts 227°
2026-04-22 01:12 38.08520 -77.87968 35826 ft 441 kts 227°
2026-04-22 01:12 38.06171 -77.90471 36112 ft 441 kts 227°
2026-04-22 01:12 38.03817 -77.92978 36252 ft 443 kts 227°
2026-04-22 01:12 38.01462 -77.95485 36222 ft 441 kts 227°
2026-04-22 01:13 37.96780 -78.00457 36249 ft 438 kts 227°
2026-04-22 01:13 37.92117 -78.05403 36240 ft 437 kts 227°
2026-04-22 01:14 37.87446 -78.10349 36230 ft 437 kts 227°
2026-04-22 01:14 37.82775 -78.15286 36235 ft 438 kts 227°
2026-04-22 01:15 37.78102 -78.20217 36232 ft 438 kts 227°
2026-04-22 01:15 37.73424 -78.25144 36229 ft 438 kts 227°
2026-04-22 01:16 37.68745 -78.30065 36232 ft 438 kts 227°
2026-04-22 01:16 37.64097 -78.34944 36231 ft 438 kts 227°
2026-04-22 01:17 37.59415 -78.39852 36225 ft 438 kts 227°
2026-04-22 01:17 37.54715 -78.44769 36237 ft 439 kts 227°
2026-04-22 01:18 37.50013 -78.49681 36242 ft 439 kts 227°
2026-04-22 01:18 37.45298 -78.54577 36233 ft 440 kts 227°
2026-04-22 01:19 37.40571 -78.59457 36242 ft 439 kts 227°
2026-04-22 01:19 37.35847 -78.64329 36249 ft 439 kts 227°
2026-04-22 01:20 37.31126 -78.69188 36234 ft 439 kts 227°
2026-04-22 01:20 37.26402 -78.74044 36245 ft 439 kts 227°
2026-04-22 01:21 37.21671 -78.78898 36249 ft 439 kts 227°
2026-04-22 01:21 37.16938 -78.83745 36225 ft 439 kts 227°
2026-04-22 01:22 37.12216 -78.88574 36253 ft 438 kts 226°
2026-04-22 01:22 37.07495 -78.93394 36252 ft 438 kts 226°
2026-04-22 01:23 37.02768 -78.98212 36249 ft 438 kts 226°
2026-04-22 01:23 36.98043 -79.03020 36251 ft 438 kts 226°
2026-04-22 01:24 36.93333 -79.07841 36243 ft 437 kts 227°
2026-04-22 01:24 36.88639 -79.12660 36254 ft 436 kts 227°
2026-04-22 01:25 36.83946 -79.17469 36259 ft 436 kts 227°
2026-04-22 01:25 36.79251 -79.22271 36258 ft 436 kts 227°
2026-04-22 01:26 36.74553 -79.27070 36238 ft 436 kts 227°
2026-04-22 01:26 36.69849 -79.31867 36260 ft 437 kts 226°
2026-04-22 01:27 36.65139 -79.36662 36269 ft 437 kts 226°
2026-04-22 01:27 36.60428 -79.41449 36269 ft 437 kts 226°
2026-04-22 01:28 36.55721 -79.46226 36259 ft 436 kts 226°
2026-04-22 01:28 36.51022 -79.50986 36240 ft 436 kts 226°
2026-04-22 01:29 36.46318 -79.55744 36267 ft 436 kts 226°
2026-04-22 01:29 36.41613 -79.60495 36263 ft 436 kts 226°
2026-04-22 01:30 36.36937 -79.65210 36267 ft 436 kts 226°
2026-04-22 01:30 36.32226 -79.69951 36273 ft 436 kts 226°
2026-04-22 01:31 36.28278 -79.73918 36254 ft 436 kts 226°
2026-04-22 01:31 36.23574 -79.78640 36266 ft 435 kts 226°
2026-04-22 01:32 36.18869 -79.83354 36268 ft 434 kts 226°
2026-04-22 01:32 36.14172 -79.88053 36275 ft 434 kts 225°
2026-04-22 01:33 36.09475 -79.92746 36277 ft 434 kts 225°
2026-04-22 01:33 36.04703 -79.97316 36250 ft 439 kts 216°
2026-04-22 01:34 35.99028 -80.00324 36253 ft 446 kts 209°
2026-04-22 01:34 35.93287 -80.03218 36278 ft 446 kts 208°
2026-04-22 01:35 35.87525 -80.06070 36276 ft 446 kts 208°
2026-04-22 01:35 35.81762 -80.08912 36271 ft 446 kts 208°
2026-04-22 01:36 35.76006 -80.11748 36283 ft 445 kts 208°
2026-04-22 01:36 35.70248 -80.14578 36285 ft 445 kts 208°
2026-04-22 01:37 35.64492 -80.17404 36289 ft 445 kts 208°
2026-04-22 01:37 35.58761 -80.20213 36313 ft 443 kts 208°
2026-04-22 01:38 35.53074 -80.22997 36323 ft 443 kts 208°
2026-04-22 01:38 35.47347 -80.25795 36328 ft 443 kts 208°
2026-04-22 01:39 35.41618 -80.28591 36326 ft 443 kts 208°
2026-04-22 01:39 35.35577 -80.30418 36306 ft 454 kts 195°
2026-04-22 01:40 35.29319 -80.31652 36325 ft 457 kts 195°
2026-04-22 01:40 35.23038 -80.32848 36311 ft 456 kts 195°
2026-04-22 01:41 35.16761 -80.34038 36308 ft 457 kts 195°
2026-04-22 01:41 35.10482 -80.35226 36273 ft 457 kts 195°
2026-04-22 01:42 35.04200 -80.36412 36293 ft 457 kts 195°
2026-04-22 01:42 34.97923 -80.37595 36294 ft 456 kts 195°
2026-04-22 01:43 34.91643 -80.38777 36296 ft 457 kts 195°
2026-04-22 01:43 34.85361 -80.39958 36280 ft 457 kts 196°
2026-04-22 01:44 34.79065 -80.41140 36304 ft 459 kts 196°
2026-04-22 01:44 34.72756 -80.42322 36302 ft 459 kts 196°
2026-04-22 01:45 34.66447 -80.43502 36298 ft 459 kts 196°
2026-04-22 01:45 34.60141 -80.44681 36284 ft 459 kts 197°
2026-04-22 01:46 34.53867 -80.45850 36300 ft 459 kts 197°
2026-04-22 01:46 34.47550 -80.47026 36300 ft 459 kts 197°
2026-04-22 01:47 34.41240 -80.48200 36307 ft 459 kts 197°
2026-04-22 01:47 34.34922 -80.49373 36287 ft 459 kts 197°
2026-04-22 01:48 34.28616 -80.50542 36311 ft 458 kts 197°
2026-04-22 01:48 34.22468 -80.52202 36319 ft 451 kts 202°
2026-04-22 01:49 34.16368 -80.54063 36314 ft 452 kts 202°
2026-04-22 01:49 34.10270 -80.55879 36257 ft 451 kts 201°
2026-04-22 01:50 34.04192 -80.57681 36292 ft 449 kts 201°
2026-04-22 01:50 33.98124 -80.59477 36294 ft 449 kts 201°
2026-04-22 01:51 33.92055 -80.61271 36290 ft 449 kts 201°
2026-04-22 01:51 33.85982 -80.63064 36283 ft 449 kts 201°
2026-04-22 01:52 33.79906 -80.64855 36290 ft 450 kts 201°
2026-04-22 01:52 33.73863 -80.66633 36304 ft 450 kts 201°
2026-04-22 01:53 33.67778 -80.68421 36307 ft 450 kts 201°
2026-04-22 01:53 33.61698 -80.70205 36314 ft 450 kts 201°
2026-04-22 01:54 33.55599 -80.71993 36315 ft 453 kts 202°
2026-04-22 01:54 33.49465 -80.73795 36319 ft 454 kts 202°
2026-04-22 01:55 33.43328 -80.75600 36321 ft 454 kts 202°
2026-04-22 01:55 33.37195 -80.77402 36320 ft 454 kts 202°
2026-04-22 01:56 33.31064 -80.79201 36308 ft 453 kts 202°
2026-04-22 01:56 33.24945 -80.80994 36317 ft 452 kts 202°
2026-04-22 01:57 33.18829 -80.82783 36318 ft 452 kts 202°
2026-04-22 01:57 33.12716 -80.84569 36318 ft 452 kts 202°
2026-04-22 01:58 33.06600 -80.86353 36317 ft 452 kts 202°
2026-04-22 01:58 33.00486 -80.88134 36334 ft 452 kts 202°
2026-04-22 01:59 32.94414 -80.89900 36335 ft 452 kts 202°
2026-04-22 01:59 32.88301 -80.91676 36329 ft 452 kts 202°
2026-04-22 02:00 32.82209 -80.93442 36290 ft 450 kts 202°
2026-04-22 02:00 32.76134 -80.95202 36323 ft 449 kts 202°
2026-04-22 02:01 32.70064 -80.96957 36318 ft 449 kts 202°
2026-04-22 02:01 32.63995 -80.98710 36323 ft 449 kts 202°
2026-04-22 02:02 32.57929 -81.00460 36325 ft 449 kts 202°
2026-04-22 02:02 32.51776 -81.01889 36308 ft 461 kts 188°
2026-04-22 02:03 32.45334 -81.02011 36308 ft 463 kts 189°
2026-04-22 02:03 32.38887 -81.02140 36321 ft 464 kts 188°
2026-04-22 02:04 32.29212 -81.02315 36307 ft 463 kts 189°
2026-04-22 02:05 32.22761 -81.02429 36330 ft 464 kts 188°
2026-04-22 02:05 32.16306 -81.02543 36328 ft 464 kts 188°
2026-04-22 02:06 32.09855 -81.02657 36301 ft 464 kts 188°
2026-04-22 02:06 32.03404 -81.02771 36304 ft 464 kts 188°
2026-04-22 02:07 31.96957 -81.02928 36311 ft 464 kts 189°
2026-04-22 02:07 31.90511 -81.03102 36300 ft 463 kts 189°
2026-04-22 02:08 31.84064 -81.03275 36291 ft 463 kts 189°
2026-04-22 02:08 31.77617 -81.03449 36297 ft 463 kts 189°
2026-04-22 02:09 31.71215 -81.03620 36288 ft 464 kts 188°
2026-04-22 02:09 31.64762 -81.03793 36296 ft 464 kts 188°
2026-04-22 02:10 31.58458 -81.04602 36280 ft 443 kts 208°
2026-04-22 02:10 31.52923 -81.07605 36298 ft 439 kts 213°
2026-04-22 02:11 31.47477 -81.10825 36285 ft 438 kts 214°
2026-04-22 02:11 31.42069 -81.14110 36311 ft 438 kts 214°
2026-04-22 02:12 31.36655 -81.17381 36318 ft 438 kts 214°
2026-04-22 02:12 31.31222 -81.20609 36317 ft 438 kts 214°
2026-04-22 02:13 31.25794 -81.23839 36316 ft 438 kts 214°
2026-04-22 02:13 31.20347 -81.27043 36305 ft 441 kts 210°
2026-04-22 02:13 31.17360 -81.28034 36301 ft 454 kts 193°
2026-04-22 02:14 31.14172 -81.28188 36339 ft 462 kts 187°
2026-04-22 02:14 31.07735 -81.28233 36319 ft 463 kts 187°
2026-04-22 02:15 31.01287 -81.28222 36318 ft 463 kts 186°
2026-04-22 02:15 30.94842 -81.28206 36300 ft 463 kts 186°
2026-04-22 02:16 30.88402 -81.28189 36313 ft 463 kts 186°
2026-04-22 02:16 30.81965 -81.28173 36317 ft 462 kts 186°
2026-04-22 02:17 30.75530 -81.28156 36315 ft 463 kts 186°
2026-04-22 02:17 30.72336 -81.28148 35975 ft 456 kts 186°
2026-04-22 02:17 30.69228 -81.28140 35543 ft 450 kts 186°
2026-04-22 02:17 30.66112 -81.28132 35101 ft 446 kts 186°
2026-04-22 02:18 30.63017 -81.28124 34602 ft 443 kts 186°
2026-04-22 02:18 30.59943 -81.28059 34128 ft 442 kts 181°
2026-04-22 02:18 30.56891 -81.27790 33762 ft 437 kts 181°
2026-04-22 02:18 30.53854 -81.27543 33556 ft 439 kts 182°
2026-04-22 02:19 30.50809 -81.27308 33312 ft 438 kts 182°
2026-04-22 02:19 30.47777 -81.27081 32959 ft 435 kts 182°
2026-04-22 02:19 30.44770 -81.26857 32555 ft 432 kts 182°
2026-04-22 02:19 30.42747 -81.26708 32296 ft 429 kts 182°
2026-04-22 02:20 30.39776 -81.26488 31958 ft 427 kts 182°
2026-04-22 02:20 30.36821 -81.26270 31636 ft 424 kts 182°
2026-04-22 02:20 30.33882 -81.26053 31300 ft 422 kts 182°
2026-04-22 02:20 30.30965 -81.25838 30965 ft 419 kts 182°
2026-04-22 02:21 30.28062 -81.25624 30624 ft 417 kts 182°
2026-04-22 02:21 30.25179 -81.25412 30271 ft 414 kts 182°
2026-04-22 02:21 30.22352 -81.25203 29896 ft 411 kts 182°
2026-04-22 02:21 30.19469 -81.24991 29554 ft 409 kts 182°
2026-04-22 02:22 30.16631 -81.24782 29247 ft 408 kts 182°
2026-04-22 02:22 30.13806 -81.24575 28924 ft 406 kts 182°
2026-04-22 02:22 30.10992 -81.24368 28601 ft 404 kts 182°
2026-04-22 02:22 30.08192 -81.24162 28269 ft 402 kts 182°
2026-04-22 02:23 30.05443 -81.23961 27969 ft 401 kts 182°
2026-04-22 02:23 30.02666 -81.23757 27650 ft 399 kts 182°
2026-04-22 02:23 29.99895 -81.23554 27332 ft 398 kts 182°
2026-04-22 02:23 29.97140 -81.23353 27014 ft 396 kts 182°
2026-04-22 02:24 29.94393 -81.23152 26700 ft 395 kts 182°
2026-04-22 02:24 29.91657 -81.22951 26383 ft 393 kts 182°
2026-04-22 02:24 29.88931 -81.22752 26065 ft 392 kts 181°
2026-04-22 02:24 29.86214 -81.22554 25755 ft 390 kts 181°
2026-04-22 02:25 29.83507 -81.22356 25440 ft 389 kts 181°
2026-04-22 02:25 29.80810 -81.22159 25119 ft 388 kts 181°
2026-04-22 02:25 29.78121 -81.21963 24815 ft 387 kts 181°
2026-04-22 02:25 29.75438 -81.21767 24507 ft 385 kts 181°
2026-04-22 02:26 29.72766 -81.21572 24199 ft 384 kts 181°
2026-04-22 02:26 29.70106 -81.21363 23863 ft 383 kts 180°
2026-04-22 02:26 29.67458 -81.21131 23487 ft 380 kts 180°
2026-04-22 02:26 29.64840 -81.20905 23187 ft 376 kts 180°
2026-04-22 02:27 29.62230 -81.20682 22889 ft 376 kts 180°
2026-04-22 02:27 29.59630 -81.20460 22588 ft 374 kts 180°
2026-04-22 02:27 29.57045 -81.20239 22288 ft 371 kts 180°
2026-04-22 02:27 29.54479 -81.20020 21982 ft 369 kts 180°
2026-04-22 02:28 29.51909 -81.19801 21509 ft 371 kts 179°
2026-04-22 02:28 29.49336 -81.19582 21081 ft 370 kts 179°
2026-04-22 02:28 29.46780 -81.19363 20784 ft 366 kts 179°
2026-04-22 02:28 29.44260 -81.19149 20503 ft 361 kts 179°
2026-04-22 02:29 29.41775 -81.18938 20220 ft 356 kts 179°
2026-04-22 02:29 29.39319 -81.18729 19936 ft 352 kts 179°
2026-04-22 02:29 29.36892 -81.18522 19634 ft 349 kts 178°
2026-04-22 02:29 29.34463 -81.18316 19356 ft 350 kts 178°
2026-04-22 02:30 29.32040 -81.18111 19073 ft 348 kts 178°
2026-04-22 02:30 29.29629 -81.17904 18787 ft 347 kts 178°
2026-04-22 02:30 29.27229 -81.17693 18477 ft 344 kts 178°
2026-04-22 02:30 29.24856 -81.17483 18173 ft 340 kts 177°
2026-04-22 02:31 29.22498 -81.17278 17894 ft 340 kts 178°
2026-04-22 02:31 29.20139 -81.17070 17641 ft 340 kts 177°
2026-04-22 02:31 29.17826 -81.16543 17305 ft 340 kts 160°
2026-04-22 02:31 29.15630 -81.15573 17058 ft 338 kts 160°
2026-04-22 02:32 29.13437 -81.14620 16786 ft 337 kts 160°
2026-04-22 02:32 29.11284 -81.13682 16537 ft 335 kts 160°
2026-04-22 02:32 29.09113 -81.12738 16271 ft 333 kts 160°
2026-04-22 02:32 29.06952 -81.11809 15997 ft 331 kts 162°
2026-04-22 02:33 29.04777 -81.10982 15702 ft 328 kts 162°
2026-04-22 02:33 29.02620 -81.10161 15444 ft 324 kts 162°
2026-04-22 02:33 29.00487 -81.09343 15191 ft 324 kts 162°
2026-04-22 02:33 28.98352 -81.08524 14935 ft 324 kts 162°
2026-04-22 02:34 28.96102 -81.08017 14611 ft 337 kts 174°
2026-04-22 02:34 28.93734 -81.07739 14329 ft 345 kts 174°
2026-04-22 02:34 28.91329 -81.07447 14077 ft 349 kts 174°
2026-04-22 02:34 28.88911 -81.07237 13766 ft 348 kts 182°
2026-04-22 02:35 28.86561 -81.07826 13439 ft 346 kts 200°
2026-04-22 02:35 28.84295 -81.08747 13180 ft 346 kts 199°
2026-04-22 02:35 28.82029 -81.09663 12921 ft 343 kts 199°
2026-04-22 02:35 28.79809 -81.10572 12654 ft 337 kts 200°
2026-04-22 02:36 28.77626 -81.11473 12386 ft 331 kts 200°
2026-04-22 02:36 28.75478 -81.12363 12121 ft 325 kts 200°
2026-04-22 02:36 28.73369 -81.13238 11859 ft 320 kts 200°
2026-04-22 02:36 28.71292 -81.14100 11608 ft 315 kts 200°
2026-04-22 02:37 28.69200 -81.14785 11278 ft 312 kts 192°
2026-04-22 02:37 28.67079 -81.15303 10923 ft 312 kts 192°
2026-04-22 02:37 28.64964 -81.15840 10584 ft 310 kts 193°
2026-04-22 02:37 28.62865 -81.16384 10249 ft 309 kts 193°
2026-04-22 02:38 28.60772 -81.16934 9881 ft 308 kts 193°
2026-04-22 02:38 28.58685 -81.17487 9520 ft 307 kts 193°
2026-04-22 02:38 28.56638 -81.18032 9182 ft 305 kts 192°
2026-04-22 02:38 28.54575 -81.18571 8839 ft 303 kts 189°
2026-04-22 02:39 28.52483 -81.18713 8479 ft 300 kts 178°
2026-04-22 02:39 28.50403 -81.18699 8179 ft 298 kts 178°
2026-04-22 02:39 28.48334 -81.18697 7868 ft 296 kts 178°
2026-04-22 02:39 28.46300 -81.18704 7524 ft 287 kts 178°
2026-04-22 02:40 28.44338 -81.18715 7234 ft 277 kts 178°
2026-04-22 02:40 28.42445 -81.18730 6927 ft 267 kts 178°
2026-04-22 02:40 28.40618 -81.18743 6624 ft 259 kts 178°
2026-04-22 02:40 28.38828 -81.18757 6159 ft 257 kts 177°
2026-04-22 02:41 28.37055 -81.18770 5719 ft 253 kts 176°
2026-04-22 02:41 28.35299 -81.18784 5336 ft 249 kts 176°
2026-04-22 02:41 28.33601 -81.18798 5073 ft 239 kts 175°
2026-04-22 02:41 28.31971 -81.18812 4826 ft 229 kts 175°
2026-04-22 02:42 28.30398 -81.18811 4459 ft 225 kts 174°
2026-04-22 02:42 28.28843 -81.18788 4100 ft 221 kts 174°
2026-04-22 02:42 28.27299 -81.18762 3655 ft 222 kts 174°
2026-04-22 02:42 28.25767 -81.18737 3320 ft 221 kts 174°
2026-04-22 02:43 28.24241 -81.18855 3072 ft 224 kts 193°
2026-04-22 02:43 28.22929 -81.19820 2778 ft 232 kts 227°
2026-04-22 02:43 28.22257 -81.21478 2476 ft 236 kts 262°
2026-04-22 02:43 28.22457 -81.23299 2181 ft 234 kts 296°
2026-04-22 02:44 28.23343 -81.24811 1995 ft 227 kts 313°
2026-04-22 02:44 28.24413 -81.26131 1991 ft 229 kts 321°
2026-04-22 02:44 28.25658 -81.27251 1983 ft 227 kts 332°
2026-04-22 02:44 28.27077 -81.27963 1977 ft 220 kts 352°
2026-04-22 02:45 28.28526 -81.28145 1985 ft 201 kts
2026-04-22 02:45 28.29892 -81.28136 1994 ft 194 kts
2026-04-22 02:45 28.31187 -81.28135 2033 ft 174 kts
2026-04-22 02:45 28.32355 -81.28144 1930 ft 164 kts
2026-04-22 02:46 28.33453 -81.28154 1758 ft 154 kts
2026-04-22 02:46 28.34512 -81.28162 1562 ft 151 kts
2026-04-22 02:46 28.35564 -81.28163 1434 ft 151 kts
2026-04-22 02:46 28.36615 -81.28169 1193 ft 150 kts
2026-04-22 02:47 28.37650 -81.28187 974 ft 147 kts
2026-04-22 02:47 28.38678 -81.28191 743 ft 149 kts
2026-04-22 02:47 28.39710 -81.28206 580 ft 148 kts
2026-04-22 02:47 28.40748 -81.28226 378 ft 149 kts
2026-04-22 02:48 28.41790 -81.28231 179 ft 150 kts
2026-04-22 02:48 28.42750 -81.28244 107 ft 108 kts 359°
2026-04-22 02:48 28.43257 -81.28248 103 ft 43 kts
2026-04-22 02:48 28.43457 -81.28266 103 ft 17 kts 341°
2026-04-22 02:49 28.43533 -81.28325 104 ft 9 kts 311°
2026-04-22 02:49 28.43582 -81.28369 106 ft 10 kts 340°
2026-04-22 02:49 28.43662 -81.28376 107 ft 15 kts 359°
2026-04-22 02:49 28.43790 -81.28377 108 ft 22 kts 360°
2026-04-22 02:50 28.43876 -81.28423 110 ft 15 kts 275°
2026-04-22 02:50 28.43875 -81.28576 109 ft 25 kts 269°
2026-04-22 02:50 28.43873 -81.28818 109 ft 35 kts 269°
2026-04-22 02:50 28.43869 -81.29102 105 ft 35 kts 270°
2026-04-22 02:51 28.43839 -81.29263 103 ft 17 kts 199°
2026-04-22 02:51 28.43713 -81.29263 105 ft 19 kts 179°
2026-04-22 02:51 28.43590 -81.29261 106 ft 12 kts 185°
2026-04-22 02:51 28.43553 -81.29329 108 ft 11 kts 270°
2026-04-22 02:52 28.43553 -81.29439 107 ft 17 kts 269°
2026-04-22 02:52 28.43550 -81.29585 107 ft 21 kts 269°
2026-04-22 02:52 28.43530 -81.29706 106 ft 13 kts 214°
2026-04-22 02:52 28.43434 -81.29711 108 ft 15 kts 179°
2026-04-22 02:53 28.43306 -81.29710 109 ft 23 kts 179°
2026-04-22 02:53 28.43122 -81.29708 106 ft 29 kts 179°
2026-04-22 02:53 28.42951 -81.29707 108 ft 12 kts 180°
2026-04-22 02:53 28.42910 -81.29765 106 ft 13 kts 271°
2026-04-22 02:54 28.42900 -81.29870 105 ft 12 kts 231°
2026-04-22 02:54 28.42819 -81.29884 105 ft 13 kts 184°
2026-04-22 02:54 28.42768 -81.29945 105 ft 10 kts 264°
2026-04-22 02:54 28.42786 -81.29990 105 ft 2 kts 306°
2026-04-22 02:55 28.42792 -81.30000 104 ft 0 kts 306°